This demonstration page uses our WeatherBlox Daily Observations layout. Learn more.

Left ArrowRight Arrow

Hourly Observations for August 14, 2020

Temp ( °F °C ) Dew Point ( °F °C ) Humidity (%) Winds ( mph kmh ) Pressure ( in mb ) Visibility ( mi km ) Precip ( " mm )
12:52 am 00:52 Clear 73 22.8 68 20 84 84 SE 6 9 29.94 1014 10 16 0.00 0.00
1:52 am 01:52 Clear 73 22.8 68 20 84 84 SE 5 7 29.93 1014 10 16 0.00 0.00
2:52 am 02:52 Clear 72 22.2 68 20 87 87 SE 7 11 29.91 1013 10 16 0.00 0.00
3:52 am 03:52 Clear 72 22.2 69 20.6 91 91 SE 6 9 29.89 1012 10 16 0.00 0.00
4:52 am 04:52 Clear 72 22.2 69 20.6 91 91 SSE 6 9 29.89 1012 10 16 0.00 0.00
5:52 am 05:52 Clear 70 21.1 69 20.6 97 97 SE 6 9 29.90 1012 9 14 0.00 0.00
6:52 am 06:52 Sunny 71 21.7 70 21.1 96 96 SSE 5 7 29.92 1013 7 11 0.00 0.00
7:52 am 07:52 Sunny 74 23.3 71 21.7 91 91 SE 10 17 29.93 1014 10 16 0.00 0.00
8:52 am 08:52 Sunny 78 25.6 72 22.2 82 82 SSE 10 17 29.94 1014 10 16 0.00 0.00
9:52 am 09:52 Sunny 82 27.8 72 22.2 72 72 SSE 7 11 29.93 1014 10 16 0.00 0.00
10:52 am 10:52 Partly Cloudy 85 29.4 72 22.2 65 65 SE 7 11 29.93 1014 10 16 0.00 0.00
11:52 am 11:52 Partly Cloudy 86 30 72 22.2 63 63 SSE 8 13 29.93 1013 10 16 0.00 0.00
12:52 pm 12:52 Sunny 88 31.1 70 21.1 55 55 SE 6 9 29.91 1013 10 16 0.00 0.00
1:52 pm 13:52 Mostly Sunny 87 30.6 69 20.6 55 55 ESE 5 7 29.90 1013 10 16 0.00 0.00
2:52 pm 14:52 Sunny 90 32.2 66 18.9 45 45 ESE 7 11 29.89 1012 10 16 0.00 0.00
3:52 pm 15:52 Mostly Sunny 93 33.9 67 19.4 42 42 NNE 7 11 29.88 1012 10 16 0.00 0.00
4:52 pm 16:52 Partly Cloudy 92 33.3 67 19.4 44 44 undefined N/A 29.87 1011 10 16 0.00 0.00
5:52 pm 17:52 Sunny 91 32.8 66 18.9 44 44 N 5 7 29.86 1011 10 16 0.00 0.00
6:52 pm 18:52 Sunny 88 31.1 69 20.6 54 54 NE 9 15 29.85 1011 10 16 0.00 0.00
7:52 pm 19:52 Sunny 85 29.4 70 21.1 61 61 NE 8 13 29.88 1012 10 16 0.00 0.00
8:52 pm 20:52 Clear 82 27.8 70 21.1 67 67 ENE 7 11 29.91 1013 10 16 0.00 0.00
9:52 pm 21:52 Clear 80 26.7 70 21.1 71 71 E 7 11 29.91 1013 10 16 0.00 0.00
10:52 pm 22:52 Clear 79 26.1 69 20.6 72 72 E 8 13 29.93 1014 10 16 0.00 0.00
11:52 pm 23:52 Clear 77 25 69 20.6 77 77 ESE 5 7 29.94 1014 10 16 0.00 0.00

Powered by AerisWeather